Home > Time Zones > World Clock > Weather > China > Wuhan > Past weeks

Flag for China Weather past 2 weeks in Wuhan, Hubei, China

Now
91 °F

Clear.


Feels Like: 100 °F
Forecast: 74 / 91 °F
Wind: 3 mph from West

Location: Wuhan Airport

Current Time: Aug 30, 2015 at 4:07:53 PM

Latest Report: Aug 30, 2015 at 3:00 PM


Visibility: 4 mi

Pressure: 29.74 "Hg

Humidity: 56%

Dew point: 73 °F

Location of WuhanLocation

Historic Weather in Wuhan — Graph

°F

Wuhan temperature yesterday

Maximum temperature yesterday: 91 °F (at 3:00 PM)
Minimum temperature yesterday: 73 °F (at 6:00 AM)
Average temperature yesterday: 82 °F

Past Weeks' High & Low Weather Summary

 TemperatureHumidityPressure
High93 °F (Aug 17, 3:00 PM)100% (Aug 16, 12:00 AM)29.86 "Hg (Aug 16, 12:00 AM)
Low70 °F (Aug 19, 10:00 AM)39% (Aug 23, 3:00 PM)29.59 "Hg (Aug 23, 6:00 PM)
Average81 °F77%29.75 "Hg
* Reported Aug 15 3:00 PM — Aug 30 3:00 PM, Wuhan, Weather by CustomWeather, © 2015

Note: Actual official high and low records may vary slightly from our data, if they occured in-between our weather recording intervals... More about our weather records

Advertising

Wuhan weather history for previous 24 hours

 ConditionsComfort  
Time TempWeatherWind HumidityBarometerVisibility
3:00 PM
Sun, Aug 30
91 °FClear.3 mph56%29.74 "Hg4 mi
2:00 PM90 °FClear.3 mph59%29.77 "Hg4 mi
1:00 PM88 °FHaze.6 mph66%29.77 "Hg2 mi
12:00 PM90 °FHaze.1 mph59%29.80 "Hg2 mi
11:00 AM88 °FHaze.3 mph66%29.83 "Hg2 mi
10:00 AM84 °FHaze.3 mph74%29.83 "Hg2 mi
9:00 AM81 °FFog.6 mph79%29.83 "Hg3 mi
8:00 AM79 °FFog.8 mph79%29.80 "Hg3 mi
7:00 AM77 °FFog.8 mph83%29.80 "Hg2 mi
6:00 AM77 °FFog.6 mph83%29.77 "Hg3 mi
5:00 AM77 °FFog.6 mph83%29.77 "Hg3 mi
4:00 AM77 °FClear.6 mph89%29.77 "Hg4 mi
3:00 AM77 °FClear.6 mph83%29.77 "Hg4 mi
2:00 AM79 °FClear.6 mph79%29.77 "Hg4 mi
1:00 AM79 °FClear.8 mph79%29.77 "Hg5 mi
12:00 AM77 °FClear.3 mph83%29.77 "Hg4 mi
11:00 PM
Sat, Aug 29
79 °FClear.3 mph79%29.77 "Hg5 mi
10:00 PM79 °FClear.1 mph74%29.77 "Hg6 mi
9:00 PM81 °FClear.1 mph74%29.74 "Hg5 mi
8:00 PM82 °FPassing clouds.3 mph74%29.71 "Hg4 mi
7:00 PM82 °FPassing clouds.No wind70%29.71 "Hg4 mi
6:00 PM90 °FPassing clouds.1 mph55%29.68 "Hg4 mi
5:00 PM91 °FPassing clouds.3 mph49%29.68 "Hg4 mi
4:00 PM91 °FPassing clouds.3 mph49%29.71 "Hg4 mi
Weather by CustomWeather, © 2015

See weather overviewHow to use our weather pages